When you browse on this site, cookies collect data to enhance your experience and personalize the content and advertising you see.
Visit our Privacy Policy to learn more. By continuing to use the site, you agree to this use of cookies and data.
  • In Slovakia
  • List of Countries
  • For 7 days
  • Water Temperature
  • Satellite Maps
  • Weather Map
  • Weather Widgets
  • user-avatar
    Login

    Hourly Weather Delichoban

    Today, 27 June, Thursday

    Time Temperature Precipitation Wind Pressure Humidity
    00:00 +26°C° 0.1 mm 2 mps 759 mmHg 70%
    01:00 +26°C° 0.1 mm 2 mps 759 mmHg 70%
    02:00 +26°C° 0.1 mm 1 mps 759 mmHg 71%
    03:00 +25°C° 0.1 mm 1 mps 758 mmHg 72%
    04:00 +26°C° 0 mm 1 mps 758 mmHg 68%
    05:00 +25°C° 0 mm 0 mps 758 mmHg 64%
    06:00 +26°C° 0 mm 0 mps 758 mmHg 60%
    07:00 +29°C° 0.1 mm 1 mps 758 mmHg 56%
    08:00 +30°C° 0.1 mm 1 mps 758 mmHg 53%
    09:00 +32°C° 0.1 mm 2 mps 758 mmHg 49%
    10:00 +32°C° 0.2 mm 2 mps 758 mmHg 50%
    11:00 +33°C° 0.2 mm 3 mps 758 mmHg 50%
    12:00 +33°C° 0.2 mm 3 mps 757 mmHg 51%
    13:00 +33°C° 0.1 mm 3 mps 757 mmHg 50%
    14:00 +33°C° 0.1 mm 3 mps 757 mmHg 48%
    15:00 +34°C° 0.1 mm 4 mps 756 mmHg 47%
    16:00 +33°C° 0 mm 3 mps 756 mmHg 50%
    17:00 +31°C° 0 mm 3 mps 756 mmHg 53%
    18:00 +30°C° 0 mm 3 mps 755 mmHg 56%
    19:00 +28°C° 0 mm 2 mps 755 mmHg 60%
    20:00 +27°C° 0 mm 2 mps 755 mmHg 65%
    21:00 +25°C° 0 mm 2 mps 755 mmHg 70%
    22:00 +25°C° 0 mm 2 mps 755 mmHg 69%
    23:00 +25°C° 0 mm 2 mps 755 mmHg 68%

    Tomorrow, 28 June, Friday

    Time Temperature Precipitation Wind Pressure Humidity
    00:00 +25°C° 0 mm 2 mps 754 mmHg 66%
    01:00 +25°C° 0 mm 2 mps 754 mmHg 66%
    02:00 +25°C° 0 mm 2 mps 754 mmHg 65%
    03:00 +25°C° 0 mm 2 mps 754 mmHg 64%
    04:00 +25°C° 0 mm 2 mps 753 mmHg 62%
    05:00 +26°C° 0 mm 3 mps 753 mmHg 60%
    06:00 +27°C° 0 mm 3 mps 753 mmHg 58%
    07:00 +29°C° 0 mm 3 mps 753 mmHg 52%
    08:00 +31°C° 0 mm 3 mps 752 mmHg 46%
    09:00 +34°C° 0 mm 4 mps 752 mmHg 40%
    10:00 +34°C° 0 mm 4 mps 752 mmHg 39%
    11:00 +35°C° 0 mm 4 mps 751 mmHg 38%
    12:00 +36°C° 0 mm 4 mps 751 mmHg 36%
    13:00 +35°C° 0 mm 4 mps 750 mmHg 37%
    14:00 +35°C° 0 mm 4 mps 750 mmHg 38%
    15:00 +34°C° 0 mm 4 mps 750 mmHg 39%
    16:00 +34°C° 0 mm 4 mps 749 mmHg 42%
    17:00 +33°C° 0 mm 3 mps 749 mmHg 45%
    18:00 +31°C° 0 mm 2 mps 749 mmHg 48%
    19:00 +30°C° 0 mm 2 mps 749 mmHg 52%
    20:00 +28°C° 0 mm 2 mps 749 mmHg 57%
    21:00 +27°C° 0 mm 2 mps 749 mmHg 62%
    22:00 +27°C° 0.1 mm 2 mps 749 mmHg 62%
    23:00 +27°C° 0.1 mm 1 mps 749 mmHg 63%

    Day after tomorrow, 29 June, Saturday

    Time Temperature Precipitation Wind Pressure Humidity
    00:00 +27°C° 0.1 mm 1 mps 749 mmHg 63%
    01:00 +26°C° 0.3 mm 3 mps 749 mmHg 68%
    02:00 +26°C° 0.3 mm 4 mps 749 mmHg 74%
    03:00 +24°C° 0.3 mm 6 mps 749 mmHg 80%
    04:00 +24°C° 0 mm 6 mps 750 mmHg 79%
    05:00 +26°C° 0 mm 5 mps 750 mmHg 79%
    06:00 +26°C° 0 mm 5 mps 750 mmHg 79%
    07:00 +27°C° 0 mm 5 mps 750 mmHg 74%
    08:00 +29°C° 0 mm 6 mps 750 mmHg 69%
    09:00 +30°C° 0 mm 6 mps 750 mmHg 65%
    10:00 +30°C° 0.1 mm 6 mps 750 mmHg 64%
    11:00 +30°C° 0.1 mm 6 mps 750 mmHg 64%
    12:00 +30°C° 0.1 mm 5 mps 750 mmHg 64%
    13:00 +29°C° 0.3 mm 4 mps 750 mmHg 69%
    14:00 +28°C° 0.3 mm 3 mps 750 mmHg 74%
    15:00 +27°C° 0.3 mm 2 mps 749 mmHg 79%
    16:00 +27°C° 0.7 mm 3 mps 749 mmHg 80%
    17:00 +26°C° 0.7 mm 4 mps 749 mmHg 82%
    18:00 +26°C° 0.7 mm 4 mps 749 mmHg 83%
    19:00 +26°C° 0.6 mm 4 mps 750 mmHg 85%
    20:00 +25°C° 0.6 mm 5 mps 750 mmHg 88%
    21:00 +23°C° 0.6 mm 5 mps 751 mmHg 90%
    22:00 +23°C° 0.7 mm 6 mps 751 mmHg 90%
    23:00 +22°C° 0.7 mm 7 mps 751 mmHg 90%

    30 June, Sunday

    Time Temperature Precipitation Wind Pressure Humidity
    00:00 +22°C° 0.7 mm 7 mps 751 mmHg 90%
    01:00 +22°C° 2.7 mm 8 mps 751 mmHg 90%
    02:00 +21°C° 2.7 mm 8 mps 752 mmHg 89%
    03:00 +21°C° 2.7 mm 9 mps 752 mmHg 89%
    04:00 +20°C° 0.4 mm 8 mps 752 mmHg 88%
    05:00 +20°C° 0.4 mm 7 mps 753 mmHg 87%
    06:00 +20°C° 0.4 mm 7 mps 753 mmHg 86%
    07:00 +21°C° 0.3 mm 6 mps 753 mmHg 84%
    08:00 +21°C° 0.3 mm 5 mps 754 mmHg 82%
    09:00 +21°C° 0.3 mm 5 mps 754 mmHg 79%
    10:00 +23°C° 0 mm 5 mps 754 mmHg 71%
    11:00 +25°C° 0 mm 5 mps 754 mmHg 64%
    12:00 +26°C° 0 mm 5 mps 754 mmHg 56%
    13:00 +26°C° 0 mm 5 mps 754 mmHg 57%
    14:00 +26°C° 0 mm 5 mps 754 mmHg 57%
    15:00 +26°C° 0 mm 5 mps 754 mmHg 58%
    16:00 +25°C° 0 mm 3 mps 754 mmHg 59%
    17:00 +25°C° 0 mm 2 mps 754 mmHg 61%
    18:00 +24°C° 0 mm 1 mps 754 mmHg 63%
    19:00 +23°C° 0.3 mm 2 mps 754 mmHg 67%
    20:00 +21°C° 0.3 mm 2 mps 754 mmHg 72%
    21:00 +21°C° 0.3 mm 2 mps 755 mmHg 77%
    22:00 +20°C° 1.8 mm 4 mps 755 mmHg 81%
    23:00 +19°C° 1.8 mm 5 mps 755 mmHg 86%

    1 July, Monday

    Time Temperature Precipitation Wind Pressure Humidity
    00:00 +18°C° 1.8 mm 7 mps 755 mmHg 91%
    01:00 +17°C° 2.7 mm 7 mps 755 mmHg 91%
    02:00 +16°C° 2.7 mm 7 mps 755 mmHg 92%
    03:00 +15°C° 2.7 mm 7 mps 755 mmHg 92%
    04:00 +16°C° 2.1 mm 7 mps 756 mmHg 91%
    05:00 +16°C° 2.1 mm 7 mps 756 mmHg 89%
    06:00 +16°C° 2.1 mm 7 mps 757 mmHg 88%
    07:00 +16°C° 1.2 mm 6 mps 757 mmHg 87%
    08:00 +16°C° 1.2 mm 5 mps 757 mmHg 87%
    09:00 +17°C° 1.2 mm 4 mps 757 mmHg 86%
    10:00 +17°C° 1.2 mm 4 mps 757 mmHg 85%
    11:00 +18°C° 1.2 mm 3 mps 757 mmHg 83%
    12:00 +18°C° 1.2 mm 3 mps 757 mmHg 81%
    13:00 +19°C° 0.3 mm 2 mps 757 mmHg 76%
    14:00 +19°C° 0.3 mm 2 mps 757 mmHg 71%
    15:00 +20°C° 0.3 mm 2 mps 757 mmHg 66%
    16:00 +20°C° 0 mm 2 mps 757 mmHg 65%
    17:00 +21°C° 0 mm 2 mps 757 mmHg 65%
    18:00 +21°C° 0 mm 2 mps 757 mmHg 64%
    19:00 +20°C° 0 mm 2 mps 757 mmHg 66%
    20:00 +19°C° 0 mm 2 mps 758 mmHg 67%
    21:00 +19°C° 0 mm 3 mps 758 mmHg 69%
    22:00 +19°C° 0 mm 4 mps 758 mmHg 68%
    23:00 +19°C° 0 mm 4 mps 758 mmHg 67%

    2 July, Tuesday

    Time Temperature Precipitation Wind Pressure Humidity
    00:00 +19°C° 0 mm 5 mps 758 mmHg 66%
    01:00 +17°C° 0 mm 5 mps 758 mmHg 66%
    02:00 +18°C° 0 mm 4 mps 759 mmHg 66%
    03:00 +18°C° 0 mm 3 mps 759 mmHg 67%
    04:00 +18°C° 0 mm 3 mps 759 mmHg 65%
    05:00 +19°C° 0 mm 3 mps 759 mmHg 64%
    06:00 +20°C° 0 mm 3 mps 759 mmHg 63%
    07:00 +21°C° 0 mm 3 mps 759 mmHg 56%
    08:00 +24°C° 0 mm 3 mps 759 mmHg 49%
    09:00 +26°C° 0 mm 3 mps 759 mmHg 43%
    10:00 +27°C° 0 mm 4 mps 759 mmHg 42%
    11:00 +28°C° 0 mm 4 mps 759 mmHg 41%
    12:00 +29°C° 0 mm 5 mps 759 mmHg 40%
    13:00 +29°C° 0 mm 5 mps 758 mmHg 42%
    14:00 +29°C° 0 mm 6 mps 758 mmHg 44%
    15:00 +29°C° 0 mm 6 mps 758 mmHg 46%
    16:00 +28°C° 0 mm 6 mps 758 mmHg 49%
    17:00 +27°C° 0 mm 5 mps 758 mmHg 53%
    18:00 +27°C° 0 mm 5 mps 758 mmHg 57%
    19:00 +25°C° 0 mm 5 mps 758 mmHg 61%
    20:00 +23°C° 0 mm 4 mps 758 mmHg 65%
    21:00 +21°C° 0 mm 3 mps 758 mmHg 69%
    22:00 +21°C° 0 mm 3 mps 758 mmHg 66%
    23:00 +21°C° 0 mm 3 mps 758 mmHg 63%
    Show more